Terminal Aerodrome Forecast
Issued by NWS Northern Indiana

Home | Current Version | Previous Version | Graphics & Text | Print | Product List | Glossary On
Versions: 1 2 3 4 5 6 7 8 9 10 11 12 13 14 15 16
000
FTUS43 KIWX 021100
TAFFWA
TAF
KFWA 021121Z 0212/0312 27009KT P6SM SCT250
     FM022200 VRB03KT P6SM SCT100
     FM031000 12009KT P6SM OVC500=

USA.gov is the U.S. government's official web portal to all federal, state and local government web resources and services.